Regional Weather Roundup
Issued by NWS

Home | Current Version | Previous Version | Text Only | Print | Product List | Glossary Off
Versions: 1 2 3 4 5 6 7 8 9 10 11 12 13 14 15 16 17 18 19 20 21 22 23 24 25 26 27 28

000
ASUS45 KSLC 080010
RWRUT

UTAH REGIONAL WEATHER ROUNDUP
NATIONAL WEATHER SERVICE SALT LAKE CITY UT
500 PM MST WED DEC 07 2016

UTZ001>011-023>025-080100-

NORTHERN UTAH

CITY           SKY/WX    TMP DP  RH WIND       PRES   REMARKS
BRIGHAM CITY     N/A     26   9  48 N7        30.31R WCI  18
DUGWAY         PTCLDY    26   4  40 NW6       30.30R WCI  19
HILL AFB       PTCLDY    23   9  55 CALM      30.28R
LOGAN          MOCLDY    21   9  59 N7        30.30R WCI  12
OGDEN          CLEAR     24   9  52 CALM      30.28R
SALT LAKE CITY PTCLDY    26  11  52 NW8       30.30R WCI  18
TOOELE VALLEY  CLEAR     25  14  63 CALM      30.31R
WENDOVER       CLEAR     25   7  46 SE3       30.31R
HEBER CITY     CLEAR     19   5  53 CALM      30.20R
WEST JORDAN    CLEAR     23  18  82 W10G17    30.29R WCI  12

$$

UTZ011>015-024>027-080100-

CENTRAL/NORTHEAST UTAH

CITY           SKY/WX    TMP DP  RH WIND       PRES   REMARKS
PROVO AIRPORT  CLEAR     24  11  57 NW6       30.29R WCI  17
MOAB/CANYONLAN CLEAR     30   3  31 NW10      30.18S WCI  21
DELTA          CLEAR     28   3  34 CALM      30.26R
PRICE          CLEAR     23  -9  24 N7        30.18R WCI  15
ROOSEVELT      PTCLDY    28   0  29 SE7       30.22R WCI  21
VERNAL         CLOUDY    24   7  48 NE10      30.22R WCI  14

$$

UTZ013>016-019>022-027-080100-

SOUTHERN UTAH

CITY           SKY/WX    TMP DP  RH WIND       PRES   REMARKS
BRYCE CANYON   NOT AVBL
CEDAR CITY     CLEAR     27   8  44 N7        30.15R WCI  19
MILFORD        CLEAR     28   7  41 N16       30.20R WCI  16
ST GEORGE      CLEAR     46   7  19 SW5       30.17R
HANKSVILLE     CLEAR     32   3  29 NE6       30.21S WCI  26
BLANDING       CLEAR     27  -2  28 NW7       30.21S WCI  20

$$

REGIONAL REPORTS     COLORADO/ARIZONA

CITY           SKY/WX    TMP DP  RH WIND       PRES   REMARKS
CRAIG, CO      CLEAR      8  -1  66 N3        30.23R
GRAND JUNCTION CLEAR     27   6  41 CALM      30.20R
RIFLE, CO      CLOUDY    23   6  48 W7        30.21R WCI  15
MONTROSE, CO   CLEAR     24   6  46 W6        30.20R WCI  17
CORTEZ, CO     CLEAR     29   1  30 N7        30.14R WCI  22
COLORADO CITY    N/A     37   9  30 W6        30.15R WCI  33
PAGE, AZ       PTCLDY    40   4  22 NE6       30.14R
GRAND CANYON   CLEAR     36  11  35 W5        30.10R WCI  32
KINGMAN, AZ    CLEAR     47   4  17 N13       30.09S
FLAGSTAFF, AZ  CLOUDY    36  17  46 SE6       30.09R WCI  31

$$

REGIONAL REPORTS    NEVADA/IDAHO/WYOMING

CITY           SKY/WX    TMP DP  RH WIND       PRES   REMARKS
LAS VEGAS, NV  MOCLDY    51   1  13 NE8       30.14R
ELY, NY        CLEAR     23   1  38 N6        30.13F WCI  16
ELKO, NV       CLEAR     25   4  40 NE9       30.19F WCI  15
POCATELLO, ID  PTCLDY    11   9  92 CALM      30.32S
BURLEY, ID     CLEAR     17  11  77 NE3       30.31R
FORT BRIDGER,    N/A     13   2  62 CALM      30.19R
EVANSTON, WY   CLEAR     10  -1  61 W6        30.15R WCI   0
ROCK SPRINGS,  CLEAR      8   1  73 SE3       30.18R

$$




USA.gov is the U.S. government's official web portal to all federal, state and local government web resources and services.